Regional Weather Roundup
Issued by NWS Burlington, VT

Home | Current Version | Previous Version | Text Only | Print | Product List | Glossary On
Versions: 1 2 3 4 5 6 7 8 9 10 11 12 13 14 15 16 17 18 19 20 21 22 23 24 25 26 27 28 29 30 31 32 33 34 35 36 37 38 39 40 41 42 43 44 45 46 47 48 49 50
000
ASUS41 KBTV 050330
RWRBTV
VERMONT REGIONAL WEATHER ROUNDUP
NATIONAL WEATHER SERVICE BURLINGTON VT
1100 PM EDT WED MAY 04 2016

NOTE: "FAIR" INDICATES FEW OR NO CLOUDS BELOW 12,000 FEET WITH NO
SIGNIFICANT WEATHER AND/OR OBSTRUCTIONS TO VISIBILITY.

* THESE REPORTS ARE NOT UNDER NWS QUALITY CONTROL AND/OR DO NOT
  REPORT WEATHER SUCH AS PRECIPITATION AND FOG.

VTZ001>019-050400-
_____VERMONT_____


CITY           SKY/WX    TMP DP  RH WIND       PRES   REMARKS
BURLINGTON     CLOUDY    48  44  86 CALM      29.83S
MONTPELIER     CLOUDY    45  43  93 CALM      29.86F
MORRISVILLE    CLOUDY    44  43  96 CALM      29.84S FOG
ST. JOHNSBURY*   N/A     46  43  89 MISG      29.82F
LYNDONVILLE*   CLOUDY    44  40  86 CALM      29.84F
MIDDLEBURY*    CLOUDY    46  46 100 CALM      29.82F
RUTLAND*       LGT RAIN  45  43  93 CALM      29.83F
SPRINGFIELD    CLOUDY    45  43  93 CALM      29.84S
HIGHGATE*      FAIR      46  45  97 CALM      29.84S
NEWPORT*       DRIZZLE   44  40  86 CALM      29.84F
BENNINGTON     CLOUDY    45  42  89 CALM      29.79F
SUTTON*          N/A     41 N/A N/A MISG        N/A
MT. MANSFIELD*   N/A     36 N/A N/A SW16        N/A  WCI  26

_____LAKE CHAMPLAIN_____


CITY           SKY/WX    TMP DP  RH WIND       PRES   REMARKS
COLCHESTER RF*   N/A     46  46 100 SE5         N/A
DIAMOND ISL*     N/A     46  46 100 W2          N/A

$$

NYZ007-026>031-035-052-083-087-050400-
_____NORTHERN NEW YORK_____


CITY           SKY/WX    TMP DP  RH WIND       PRES   REMARKS
PLATTSBURGH    CLOUDY    46  44  93 CALM      29.83F
SARANAC LAKE   CLOUDY    44  41  89 E3        29.78F
MASSENA        CLOUDY    50  45  83 NE6       29.82S
OGDENSBURG*    CLOUDY    52  48  87 CALM      29.79F
POTSDAM*       CLOUDY    48  48 100 CALM      29.80
WATERTOWN      CLOUDY    50  49  96 CALM      29.77S FOG
FT DRUM        MOCLDY    51  49  92 E3        29.76S
ALBANY         CLOUDY    48  42  80 N3        29.80F
GLENS FALLS    CLOUDY    48  43  82 N5        29.81F

$$
NHZ002-005-011-050400-
_____NEW HAMPSHIRE_____


CITY           SKY/WX    TMP DP  RH WIND       PRES   REMARKS
LEBANON        CLOUDY    47  44  90 CALM      29.83S
KEENE          CLOUDY    45  39  81 N5        29.82F
MT WASHINGTON  LGTSLEET  30  30 100 E20         N/A  VSB 0   WCI  18
PLYMOUTH       CLOUDY    44  42  93 S3        29.85R
WHITEFIELD     CLOUDY    46  39  76 E8        29.82F

$$

_____REGIONAL QUEBEC LOCATIONS_____


CITY           SKY/WX    TMP DP  RH WIND       PRES   REMARKS
MONTREAL       MOCLDY    52  43  71 SE7       29.84S
QUEBEC CITY    PTCLDY    45  37  76 NE7       29.93R
SHERBROOKE     CLOUDY    46  41  81 NE6       29.85F

_____REGIONAL ONTARIO LOCATIONS_____


CITY           SKY/WX    TMP DP  RH WIND       PRES   REMARKS
OTTAWA         CLOUDY    48  46  93 NE9       29.82F

______KEY______
VSB  - VISIBILITY IN MILES
WCI  - WIND CHILL INDEX
HX   - HEAT INDEX
$$
NNNN




USA.gov is the U.S. government's official web portal to all federal, state and local government web resources and services.